Location: Dealu Mare
(46.0500°N, 22.8167°E)
Time: 09:19:47
(UTC+00:00)

Meteor 1-15 Rocket - Pass Details

Date: 15 January 2026
Orbit: 839 x 906 km, 81.2° (Epoch: 9 February)

Event Time Altitude Azimuth Distance (km) Brightness Sun altitude
Rises 05:22:23 0° 188° (S) 3,454 7.6 -7.8°
Reaches altitude 10° 05:24:48 10° 189° (S) 2,530 6.9 -7.4°
Maximum altitude 05:30:35 89° 93° (E) 898 4.4 -6.5°
Drops below altitude 10° 05:36:30 10° 11° (N) 2,586 6.6 -5.5°
Sets 05:38:59 0° 12° (NNE) 3,537 7.3 -5.1°
